Lagoon City, Ontario

Past 24 Hour Conditions

Date / Time
(EDT)
Conditions Temp
(°F)
Humidity
(%)
Dew Point
(°F)
Wind
(mph)
Pressure
(inches)
Visibility
(miles)
22 October 2014
4:00 N/A 35   90 33 N 7 30.2 N/A
3:00 N/A 35   89 33 N 6 30.2 N/A
2:00 N/A 37 87 33 N 8 30.2 N/A
1:00 N/A 38 83 33 N 7 30.2 N/A
00:00 N/A 40 79 34 N 8 30.2 N/A
21 October 2014
23:00 N/A 41 75 34 N 9 30.2 N/A
22:00 N/A 42 77 35 NNE 10 30.2 N/A
21:00 N/A 43 78 36 NNE 13 gust 19 30.2 N/A
20:00 N/A 42 84 38 NNE 9 30.1 N/A
19:00 N/A 42 84 38 NNE 13 gust 21 30.1 N/A
18:00 N/A 42 86 38 NNE 16 30.1 N/A
17:00 N/A 43 84 39 NNE 14 gust 22 30.0 N/A
16:00 N/A 44 84 39 NNE 16 gust 22 30.0 N/A
15:00 N/A 44 85 40 NNE 13 gust 19 30.0 N/A
14:00 N/A 43 90 41 NNE 8 30.0 N/A
13:00 N/A 43 93 41 NE 10 gust 17 29.9 N/A
12:00 N/A 43 93 41 NNE 11 29.9 N/A
11:00 N/A 43 93 41 NNE 12 gust 19 29.9 N/A
10:00 N/A 43 92 41 NNE 12 29.9 N/A
9:00 N/A 44 92 42 NNE 12 gust 18 29.9 N/A
8:00 N/A 46 93 44 NE 13 29.8 N/A
7:00 N/A 47 96 46 NE 7 29.8 N/A
6:00 N/A 48   97 47 NE 5 29.8 N/A
5:00 N/A 48   97 47 NE 5 29.8 N/A
4:00 N/A 48   97 47 NE 4 29.8 N/A
N/A Not available
↑ Highest temperature
↓ Lowest temperature

If you require additional historical weather information, please visit Climate Data Online.

Date modified: